Location: Czekanka
(50.4925°N, 19.2643°E)
Time: 02:09:52
(UTC+00:00)

CZ-2C R/B - Pass Details

Date: 26 September 2024
Orbit: 703 x 903 km, 98.2° (Epoch: 09 October)

Event Time Altitude Azimuth Distance (km) Brightness Sun altitude
Rises 01:07:31 0° 12° (NNE) 3,541 7.2 -31.2°
Reaches altitude 10° 01:09:58 10° 9° (N) 2,594 6.3 -30.9°
Enters shadow 01:14:36 52° 336° (NNW) 1,107 3.8 -30.3°
